Location: Broekland
(52.3610°N, 6.2005°E)
Time: 05:24:52
(UTC+00:00)

Cosmos 2360 Rocket - Pass Details

Date: 19 May 2025
Orbit: 834 x 842 km, 71.0° (Epoch: 14 June)

Event Time Altitude Azimuth Distance (km) Brightness Sun altitude
Rises 23:08:21 0° 328° (NNW) 3,395 6.5 -17.5°
Reaches altitude 10° 23:10:47 10° 329° (NNW) 2,457 5.6 -17.5°
Maximum altitude 23:16:27 89° 239° (WSW) 843 2.1 -17.6°
Enters shadow 23:19:39 27° 152° (SSE) 1,562 3.1 -17.6°
